Find Starlink 11313

NORAD ID: 61255 Int'l Des: 2024-175 Owner: SPXS Country: US Constellation: starlink operational
別名: STARLINK-11313 [DTC] celestrak
LEOCIRCULAR

現在のビュー

3D地球を読み込み中...

About Starlink 11313

Starlink 11313 (NORAD 61255) is a starlink constellation satellite (v2 mini d2c) launched Sep 25, 2024 by SPXS of US. It operates in LEO, CIRCULAR orbit with a mass of 960.00 kg.

次回通過

Passes for default location (London). Set your location on the main map for personalized predictions.

高度履歴

Loading altitude history...

軌道要素

1 61255U 24175N 26263.31576729 .00000861 00000-0 11958-4 0 9990
2 61255 53.1602 176.9023 0001046 85.4590 274.6548 15.69718550113938
Epoch: Sep 20, 2026 • Age: 23 hours

現在のステータス

高度 362.0 km
遠地点 / 近地点 N/A
速度 7.69 km/s
衛星直下点 -7.41°S, 69.59°E
打ち上げ日 Sep 25, 2024
運用期間 1.9 years
タイプ internet

技術仕様

分類 Payload
質量 960.00 kg
乾燥質量 910.00 kg
長さ 0.30 m
スパン 29.00 m
形状 ? Box + pan
製造者 SPXS
バスタイプ Starlink V2MD
フェーズステータス In Orbit
所有者/国 SPXS/US

Most Searched